Time,TemperatureF,DewpointF,PressureIn,WindDirection,WindDirectionDegrees,WindSpeedMPH,WindSpeedGustMPH,Humidity,HourlyPrecipIn,Conditions,Clouds,dailyrainin,SoftwareType,DateUTC
2013-08-29 00:10:00,79.7,76.5,29.67,SSW,202,3.7,-999.0,90,-99.99,,,0.00,Acu-Link.com,2013-08-29 04:10:00,
2013-08-29 00:25:00,79.5,76.6,29.67,SW,225,3.2,-999.0,91,-99.99,,,0.00,Acu-Link.com,2013-08-29 04:25:00,
2013-08-29 00:40:00,79.5,76.6,29.67,SSW,202,3.7,-999.0,91,-99.99,,,0.00,Acu-Link.com,2013-08-29 04:40:00,
2013-08-29 00:56:00,79.5,77.0,29.66,SW,225,5.8,-999.0,92,-99.99,,,0.00,Acu-Link.com,2013-08-29 04:56:00,
2013-08-29 01:11:00,79.5,77.0,29.66,SSW,202,5.8,-999.0,92,-99.99,,,0.00,Acu-Link.com,2013-08-29 05:11:00,
2013-08-29 01:26:00,79.5,77.0,29.65,West,270,3.2,-999.0,92,-99.99,,,0.00,Acu-Link.com,2013-08-29 05:26:00,
2013-08-29 01:41:00,79.3,76.8,29.65,SSW,202,5.3,-999.0,92,-99.99,,,0.00,Acu-Link.com,2013-08-29 05:41:00,
2013-08-29 01:56:00,79.3,76.8,29.63,South,180,4.2,-999.0,92,-99.99,,,0.00,Acu-Link.com,2013-08-29 05:56:00,
2013-08-29 02:11:00,79.2,77.0,29.64,West,270,4.7,-999.0,93,-99.99,,,0.00,Acu-Link.com,2013-08-29 06:11:00,
2013-08-29 02:26:00,79.2,77.0,29.64,SW,225,7.3,-999.0,93,-99.99,,,0.00,Acu-Link.com,2013-08-29 06:26:00,
2013-08-29 02:41:00,79.2,77.0,29.63,South,180,5.8,-999.0,93,-99.99,,,0.00,Acu-Link.com,2013-08-29 06:41:00,
2013-08-29 02:56:00,79.2,77.0,29.63,SW,225,3.7,-999.0,93,-99.99,,,0.00,Acu-Link.com,2013-08-29 06:56:00,
2013-08-29 03:12:00,79.2,77.0,29.63,WSW,247,7.3,-999.0,93,-99.99,,,0.00,Acu-Link.com,2013-08-29 07:12:00,
2013-08-29 03:27:00,79.2,77.0,29.62,South,180,4.2,-999.0,93,-99.99,,,0.00,Acu-Link.com,2013-08-29 07:27:00,
2013-08-29 03:42:00,79.2,76.7,29.62,SW,225,3.7,-999.0,92,-99.99,,,0.00,Acu-Link.com,2013-08-29 07:42:00,
2013-08-29 03:57:00,79.2,76.7,29.61,SSW,202,6.3,-999.0,92,-99.99,,,0.00,Acu-Link.com,2013-08-29 07:57:00,
2013-08-29 04:20:00,79.2,76.7,29.61,WSW,247,4.2,-999.0,92,-99.99,,,0.00,Acu-Link.com,2013-08-29 08:20:00,
2013-08-29 04:35:00,79.2,76.3,29.62,West,270,4.2,-999.0,91,-99.99,,,0.00,Acu-Link.com,2013-08-29 08:35:00,
2013-08-29 04:51:00,79.2,76.0,29.61,South,180,4.2,-999.0,90,-99.99,,,0.00,Acu-Link.com,2013-08-29 08:51:00,
2013-08-29 05:07:00,79.2,75.7,29.62,WSW,247,2.7,-999.0,89,-99.99,,,0.00,Acu-Link.com,2013-08-29 09:07:00,
2013-08-29 05:28:00,78.8,75.3,29.61,SSE,157,3.7,-999.0,89,-99.99,,,0.00,Acu-Link.com,2013-08-29 09:28:00,
2013-08-29 05:49:00,78.6,75.1,29.61,SW,225,6.3,-999.0,89,-99.99,,,0.00,Acu-Link.com,2013-08-29 09:49:00,
2013-08-29 06:18:00,78.1,75.3,29.62,SW,225,7.3,-999.0,91,-99.99,,,0.00,Acu-Link.com,2013-08-29 10:18:00,
2013-08-29 06:37:00,78.1,74.9,29.61,SW,225,3.7,-999.0,90,-99.99,,,0.00,Acu-Link.com,2013-08-29 10:37:00,
2013-08-29 06:55:00,78.3,75.1,29.62,South,180,7.3,-999.0,90,-99.99,,,0.00,Acu-Link.com,2013-08-29 10:55:00,
2013-08-29 07:11:00,78.3,74.8,29.62,NW,315,4.2,-999.0,89,-99.99,,,0.00,Acu-Link.com,2013-08-29 11:11:00,
2013-08-29 07:26:00,78.3,74.4,29.63,SW,225,5.3,-999.0,88,-99.99,,,0.00,Acu-Link.com,2013-08-29 11:26:00,
2013-08-29 07:44:00,78.6,74.4,29.63,South,180,2.2,-999.0,87,-99.99,,,0.00,Acu-Link.com,2013-08-29 11:44:00,
2013-08-29 07:59:00,78.8,74.2,29.63,West,270,3.2,-999.0,86,-99.99,,,0.00,Acu-Link.com,2013-08-29 11:59:00,
2013-08-29 08:15:00,79.0,74.4,29.63,West,270,5.3,-999.0,86,-99.99,,,0.00,Acu-Link.com,2013-08-29 12:15:00,
2013-08-29 08:32:00,79.2,74.6,29.63,West,270,4.2,-999.0,86,-99.99,,,0.00,Acu-Link.com,2013-08-29 12:32:00,
2013-08-29 08:47:00,80.2,74.9,29.64,West,270,3.7,-999.0,84,-99.99,,,0.00,Acu-Link.com,2013-08-29 12:47:00,
2013-08-29 09:02:00,80.2,74.9,29.64,South,180,1.1,-999.0,84,-99.99,,,0.00,Acu-Link.com,2013-08-29 13:02:00,
2013-08-29 09:17:00,81.3,74.5,29.64,WNW,292,2.7,-999.0,80,-99.99,,,0.00,Acu-Link.com,2013-08-29 13:17:00,
2013-08-29 09:32:00,82.8,75.2,29.64,SW,225,2.2,-999.0,78,-99.99,,,0.00,Acu-Link.com,2013-08-29 13:32:00,
2013-08-29 09:47:00,83.5,75.9,29.64,West,270,3.2,-999.0,78,-99.99,,,0.00,Acu-Link.com,2013-08-29 13:47:00,
2013-08-29 10:02:00,84.4,76.4,29.65,East,90,3.7,-999.0,77,-99.99,,,0.00,Acu-Link.com,2013-08-29 14:02:00,
2013-08-29 10:17:00,84.4,76.4,29.64,SSE,157,2.2,-999.0,77,-99.99,,,0.00,Acu-Link.com,2013-08-29 14:17:00,
2013-08-29 10:33:00,84.7,76.7,29.64,East,90,2.2,-999.0,77,-99.99,,,0.00,Acu-Link.com,2013-08-29 14:33:00,
2013-08-29 10:48:00,85.8,77.3,29.64,South,180,0.0,-999.0,76,-99.99,,,0.00,Acu-Link.com,2013-08-29 14:48:00,
2013-08-29 11:03:00,86.4,77.1,29.65,West,270,2.7,-999.0,74,-99.99,,,0.00,Acu-Link.com,2013-08-29 15:03:00,
2013-08-29 11:18:00,88.5,78.3,29.64,ESE,112,3.2,-999.0,72,-99.99,,,0.00,Acu-Link.com,2013-08-29 15:18:00,
2013-08-29 11:33:00,87.1,77.4,29.64,East,90,4.2,-999.0,73,-99.99,,,0.00,Acu-Link.com,2013-08-29 15:33:00,
2013-08-29 11:48:00,87.3,77.6,29.64,ESE,112,1.7,-999.0,73,-99.99,,,0.00,Acu-Link.com,2013-08-29 15:48:00,
2013-08-29 12:04:00,87.8,77.6,29.64,East,90,1.7,-999.0,72,-99.99,,,0.00,Acu-Link.com,2013-08-29 16:04:00,
2013-08-29 12:19:00,88.3,77.7,29.65,NE,45,1.7,-999.0,71,-99.99,,,0.00,Acu-Link.com,2013-08-29 16:19:00,
2013-08-29 12:34:00,88.5,77.4,29.64,South,180,2.7,-999.0,70,-99.99,,,0.00,Acu-Link.com,2013-08-29 16:34:00,
2013-08-29 12:49:00,89.6,78.0,29.64,NE,45,3.2,-999.0,69,-99.99,,,0.00,Acu-Link.com,2013-08-29 16:49:00,
2013-08-29 13:04:00,90.3,78.3,29.65,North,0,0.0,-999.0,68,-99.99,,,0.00,Acu-Link.com,2013-08-29 17:04:00,
2013-08-29 13:19:00,87.6,77.4,29.64,ESE,112,2.7,-999.0,72,-99.99,,,0.00,Acu-Link.com,2013-08-29 17:19:00,
2013-08-29 13:34:00,90.7,78.7,29.65,NNE,22,2.7,-999.0,68,-99.99,,,0.00,Acu-Link.com,2013-08-29 17:34:00,
2013-08-29 13:49:00,88.5,77.4,29.64,South,180,1.7,-999.0,70,-99.99,,,0.00,Acu-Link.com,2013-08-29 17:49:00,
2013-08-29 14:04:00,88.2,77.6,29.64,ESE,112,0.0,-999.0,71,-99.99,,,0.00,Acu-Link.com,2013-08-29 18:04:00,
2013-08-29 14:20:00,86.0,77.9,29.64,WNW,292,0.0,-999.0,77,-99.99,,,0.00,Acu-Link.com,2013-08-29 18:20:00,
2013-08-29 14:36:00,85.8,78.1,29.64,West,270,2.7,-999.0,78,-99.99,,,0.00,Acu-Link.com,2013-08-29 18:36:00,
2013-08-29 14:51:00,87.8,77.6,29.64,North,0,2.2,-999.0,72,-99.99,,,0.00,Acu-Link.com,2013-08-29 18:51:00,
2013-08-29 15:07:00,88.7,78.1,29.63,NE,45,0.0,-999.0,71,-99.99,,,0.00,Acu-Link.com,2013-08-29 19:07:00,
2013-08-29 15:23:00,86.9,78.8,29.62,SSE,157,2.7,-999.0,77,-99.99,,,0.00,Acu-Link.com,2013-08-29 19:23:00,
2013-08-29 15:38:00,90.0,79.3,29.63,NE,45,1.7,-999.0,71,-99.99,,,0.00,Acu-Link.com,2013-08-29 19:38:00,
2013-08-29 15:54:00,78.8,75.9,29.65,NNE,22,3.7,-999.0,91,-99.99,,,0.18,Acu-Link.com,2013-08-29 19:54:00,
2013-08-29 16:09:00,76.5,75.3,29.65,NE,45,2.2,-999.0,96,-99.99,,,0.57,Acu-Link.com,2013-08-29 20:09:00,
2013-08-29 16:24:00,78.1,76.9,29.63,NE,45,1.7,-999.0,96,-99.99,,,0.66,Acu-Link.com,2013-08-29 20:24:00,
2013-08-29 16:39:00,79.9,78.3,29.65,ENE,67,2.7,-999.0,95,-99.99,,,0.66,Acu-Link.com,2013-08-29 20:39:00,
2013-08-29 16:55:00,81.1,79.5,29.64,ENE,67,2.7,-999.0,95,-99.99,,,0.66,Acu-Link.com,2013-08-29 20:55:00,
2013-08-29 20:29:00,76.1,73.6,29.69,NE,45,2.2,-999.0,92,-99.99,,,0.66,Acu-Link.com,2013-08-30 00:29:00,
2013-08-29 20:48:00,75.9,73.4,29.70,SSE,157,1.7,-999.0,92,-99.99,,,0.66,Acu-Link.com,2013-08-30 00:48:00,
2013-08-29 21:14:00,75.7,73.2,29.71,NNE,22,2.2,-999.0,92,-99.99,,,0.66,Acu-Link.com,2013-08-30 01:14:00,
2013-08-29 21:29:00,75.6,73.1,29.72,ENE,67,4.7,-999.0,92,-99.99,,,0.66,Acu-Link.com,2013-08-30 01:29:00,
2013-08-29 21:44:00,75.4,72.6,29.72,East,90,2.7,-999.0,91,-99.99,,,0.66,Acu-Link.com,2013-08-30 01:44:00,
2013-08-29 22:04:00,74.8,72.0,29.74,East,90,1.7,-999.0,91,-99.99,,,0.66,Acu-Link.com,2013-08-30 02:04:00,
2013-08-29 23:08:00,74.8,72.0,29.77,ESE,112,3.2,-999.0,91,-99.99,,,0.66,Acu-Link.com,2013-08-30 03:08:00,
2013-08-29 23:44:00,73.6,71.8,29.77,NE,45,4.2,-999.0,94,-99.99,,,0.66,Acu-Link.com,2013-08-30 03:44:00,
2013-08-29 23:59:00,73.4,71.6,29.77,NNE,22,2.2,-999.0,94,-99.99,,,0.66,Acu-Link.com,2013-08-30 03:59:00,